Location: Bonaustraße
(48.4603°N, 11.9280°E)
Time: 03:54:11
(UTC+01:00)

Envisat - Pass Details

Date: 21 January 2021
Orbit: 764 x 766 km, 98.1° (Epoch: 05 March)

Event Time Altitude Azimuth Distance (km) Brightness Sun altitude
Rises 17:39:41 0° 186° (S) 3,220 6.6 -7.7°
Reaches altitude 10° 17:42:07 10° 194° (SSW) 2,298 6.0 -8.1°
Maximum altitude 17:46:50 39° 263° (W) 1,142 4.6 -8.8°
Drops below altitude 10° 17:51:37 10° 332° (NNW) 2,315 5.6 -9.5°
Sets 17:54:05 0° 340° (NNW) 3,246 6.3 -9.9°
